ABY119 OMSJ-OBBI

Flight info

Callsign ABY119
Flight time 1h 3m
Altitude 26000
Route NABIX P699 ALKAN M556 ORDIG
Aircraft A320/M-SDE3FGHIRWY/LB1

Departure

Time 2026-05-08 17:07
Airport Sharjah International Airport (OMSJ)

Arrival

Time 2026-05-08 18:10
Airport Bahrain International Airport (OBBI)
Time Latitude Longitude Altitude Speed Heading
2026-05-08 16:39 25.32320 55.52020 112 ft 0 kts 212°
2026-05-08 16:57 25.32337 55.52032 114 ft 4 kts 211°
2026-05-08 16:57 25.32360 55.52047 111 ft 4 kts 210°
2026-05-08 16:58 25.32384 55.52062 112 ft 4 kts 208°
2026-05-08 16:58 25.32408 55.52075 113 ft 4 kts 203°
2026-05-08 16:58 25.32433 55.52085 113 ft 4 kts 187°
2026-05-08 16:58 25.32455 55.52082 111 ft 3 kts 127°
2026-05-08 16:59 25.32456 55.52080 111 ft 0 kts 122°
2026-05-08 17:01 25.32448 55.52095 113 ft 7 kts 122°
2026-05-08 17:02 25.32421 55.52143 113 ft 7 kts 122°
2026-05-08 17:02 25.32388 55.52199 112 ft 10 kts 122°
2026-05-08 17:02 25.32351 55.52263 115 ft 9 kts 122°
2026-05-08 17:02 25.32311 55.52334 113 ft 13 kts 122°
2026-05-08 17:03 25.32252 55.52438 113 ft 18 kts 123°
2026-05-08 17:03 25.32179 55.52564 115 ft 20 kts 122°
2026-05-08 17:03 25.32099 55.52703 114 ft 22 kts 123°
2026-05-08 17:03 25.32013 55.52852 114 ft 19 kts 123°
2026-05-08 17:04 25.31939 55.52981 113 ft 21 kts 122°
2026-05-08 17:04 25.31856 55.53123 112 ft 22 kts 122°
2026-05-08 17:04 25.31800 55.53223 112 ft 8 kts 119°
2026-05-08 17:04 25.31788 55.53281 112 ft 7 kts 98°
2026-05-08 17:05 25.31788 55.53345 115 ft 8 kts 70°
2026-05-08 17:05 25.31827 55.53384 114 ft 7 kts 31°
2026-05-08 17:05 25.31867 55.53410 113 ft 6 kts 31°
2026-05-08 17:05 25.31900 55.53433 116 ft 8 kts 32°
2026-05-08 17:06 25.31972 55.53482 117 ft 13 kts 31°
2026-05-08 17:06 25.32041 55.53527 117 ft 10 kts 28°
2026-05-08 17:06 25.32099 55.53507 116 ft 9 kts 307°
2026-05-08 17:06 25.32136 55.53443 116 ft 16 kts 302°
2026-05-08 17:07 25.32334 55.53099 119 ft 90 kts 302°
2026-05-08 17:07 25.32784 55.52313 114 ft 149 kts 302°
2026-05-08 17:07 25.33401 55.51204 359 ft 178 kts 301°
2026-05-08 17:07 25.34056 55.50070 1036 ft 177 kts 301°
2026-05-08 17:08 25.34761 55.48967 1842 ft 175 kts 308°
2026-05-08 17:08 25.35576 55.47961 2465 ft 178 kts 313°
2026-05-08 17:08 25.36497 55.47011 3057 ft 182 kts 317°
2026-05-08 17:08 25.37462 55.46114 3641 ft 185 kts 319°
2026-05-08 17:09 25.38463 55.45206 4247 ft 187 kts 319°
2026-05-08 17:09 25.39449 55.44259 4853 ft 188 kts 316°
2026-05-08 17:09 25.40379 55.43234 5448 ft 189 kts 311°
2026-05-08 17:09 25.41207 55.42103 6020 ft 192 kts 304°
2026-05-08 17:10 25.41900 55.40806 6478 ft 200 kts 294°
2026-05-08 17:10 25.42369 55.39366 7072 ft 197 kts 282°
2026-05-08 17:10 25.42533 55.37889 7711 ft 193 kts 268°
2026-05-08 17:10 25.42358 55.36417 8152 ft 200 kts 252°
2026-05-08 17:11 25.41784 55.35015 8739 ft 199 kts 234°
2026-05-08 17:11 25.40860 55.33935 9480 ft 191 kts 215°
2026-05-08 17:11 25.39674 55.33236 9953 ft 198 kts 212°
2026-05-08 17:11 25.38663 55.32108 10022 ft 227 kts 249°
2026-05-08 17:12 25.39676 55.26922 10759 ft 286 kts 272°
2026-05-08 17:12 25.39365 55.24668 10979 ft 305 kts 247°
2026-05-08 17:13 25.38561 55.22436 11234 ft 326 kts 250°
2026-05-08 17:13 25.37907 55.19998 11814 ft 334 kts 253°
2026-05-08 17:13 25.37346 55.17479 12509 ft 339 kts 255°
2026-05-08 17:13 25.36800 55.14921 13223 ft 343 kts 255°
2026-05-08 17:14 25.36230 55.12345 13885 ft 346 kts 254°
2026-05-08 17:14 25.35621 55.09749 14477 ft 351 kts 253°
2026-05-08 17:14 25.34989 55.07164 14719 ft 353 kts 253°
2026-05-08 17:14 25.34328 55.04538 15061 ft 356 kts 253°
2026-05-08 17:15 25.33651 55.01892 15696 ft 359 kts 253°
2026-05-08 17:15 25.32964 54.99220 16319 ft 362 kts 252°
2026-05-08 17:15 25.32271 54.96520 16932 ft 366 kts 252°
2026-05-08 17:15 25.31574 54.93794 17532 ft 370 kts 253°
2026-05-08 17:16 25.30883 54.91072 18094 ft 374 kts 253°
2026-05-08 17:16 25.30167 54.88250 18607 ft 378 kts 253°
2026-05-08 17:16 25.29466 54.85482 19153 ft 380 kts 252°
2026-05-08 17:16 25.28749 54.82661 19704 ft 381 kts 252°
2026-05-08 17:17 25.28029 54.79832 20256 ft 383 kts 252°
2026-05-08 17:17 25.27301 54.76979 20781 ft 386 kts 253°
2026-05-08 17:17 25.26569 54.74120 21309 ft 388 kts 252°
2026-05-08 17:17 25.25832 54.71244 21845 ft 390 kts 252°
2026-05-08 17:18 25.25101 54.68396 22351 ft 392 kts 252°
2026-05-08 17:18 25.24355 54.65489 22870 ft 394 kts 252°
2026-05-08 17:18 25.23605 54.62570 23384 ft 396 kts 252°
2026-05-08 17:18 25.22847 54.59634 23799 ft 397 kts 252°
2026-05-08 17:19 25.22100 54.56685 24235 ft 399 kts 255°
2026-05-08 17:19 25.21710 54.53635 24655 ft 403 kts 265°
2026-05-08 17:19 25.21859 54.50532 25073 ft 408 kts 276°
2026-05-08 17:19 25.22514 54.47507 25499 ft 411 kts 283°
2026-05-08 17:20 25.23292 54.44464 25750 ft 411 kts 282°
2026-05-08 17:20 25.24060 54.41438 25820 ft 402 kts 282°
2026-05-08 17:20 25.24806 54.38489 25821 ft 395 kts 282°
2026-05-08 17:20 25.25541 54.35575 25815 ft 393 kts 282°
2026-05-08 17:21 25.26270 54.32665 25824 ft 392 kts 282°
2026-05-08 17:21 25.26986 54.29793 25827 ft 392 kts 282°
2026-05-08 17:21 25.27707 54.26892 25823 ft 391 kts 282°
2026-05-08 17:21 25.28427 54.23983 25830 ft 391 kts 282°
2026-05-08 17:22 25.29142 54.21082 25828 ft 391 kts 282°
2026-05-08 17:22 25.29858 54.18173 25820 ft 391 kts 282°
2026-05-08 17:22 25.30565 54.15306 25820 ft 391 kts 282°
2026-05-08 17:22 25.31276 54.12401 25832 ft 391 kts 281°
2026-05-08 17:23 25.31938 54.09491 25825 ft 390 kts 280°
2026-05-08 17:23 25.32557 54.06572 25817 ft 389 kts 279°
2026-05-08 17:23 25.33152 54.03649 25824 ft 389 kts 279°
2026-05-08 17:23 25.33737 54.00758 25822 ft 389 kts 279°
2026-05-08 17:24 25.34334 53.97838 25823 ft 389 kts 279°
2026-05-08 17:24 25.34941 53.94916 25822 ft 389 kts 279°
2026-05-08 17:24 25.35555 53.92000 25824 ft 389 kts 279°
2026-05-08 17:24 25.36170 53.89082 25830 ft 389 kts 279°
2026-05-08 17:25 25.36787 53.86167 25826 ft 389 kts 279°
2026-05-08 17:25 25.37404 53.83254 25830 ft 389 kts 279°
2026-05-08 17:25 25.38015 53.80364 25830 ft 389 kts 279°
2026-05-08 17:25 25.38630 53.77448 25828 ft 389 kts 279°
2026-05-08 17:26 25.39240 53.74531 25833 ft 389 kts 279°
2026-05-08 17:26 25.39849 53.71607 25832 ft 389 kts 279°
2026-05-08 17:26 25.40458 53.68692 25828 ft 389 kts 279°
2026-05-08 17:26 25.41068 53.65776 25829 ft 389 kts 279°
2026-05-08 17:27 25.41671 53.62896 25827 ft 389 kts 279°
2026-05-08 17:27 25.42283 53.59985 25828 ft 388 kts 279°
2026-05-08 17:27 25.42895 53.57070 25826 ft 388 kts 279°
2026-05-08 17:27 25.43507 53.54150 25829 ft 388 kts 279°
2026-05-08 17:28 25.44115 53.51240 25825 ft 388 kts 279°
2026-05-08 17:28 25.44712 53.48366 25826 ft 388 kts 279°
2026-05-08 17:28 25.45313 53.45450 25824 ft 388 kts 279°
2026-05-08 17:28 25.45913 53.42537 25824 ft 388 kts 279°
2026-05-08 17:29 25.46515 53.39627 25825 ft 388 kts 279°
2026-05-08 17:29 25.47119 53.36715 25831 ft 388 kts 279°
2026-05-08 17:29 25.47715 53.33845 25835 ft 387 kts 279°
2026-05-08 17:29 25.48317 53.30940 25833 ft 387 kts 279°
2026-05-08 17:30 25.48916 53.28039 25830 ft 387 kts 279°
2026-05-08 17:30 25.49516 53.25132 25830 ft 387 kts 279°
2026-05-08 17:30 25.50116 53.22225 25829 ft 386 kts 279°
2026-05-08 17:30 25.50713 53.19314 25828 ft 386 kts 279°
2026-05-08 17:31 25.51306 53.16410 25828 ft 386 kts 279°
2026-05-08 17:31 25.51900 53.13508 25830 ft 386 kts 279°
2026-05-08 17:31 25.52487 53.10636 25828 ft 386 kts 279°
2026-05-08 17:31 25.53080 53.07729 25825 ft 386 kts 279°
2026-05-08 17:32 25.53671 53.04823 25828 ft 386 kts 279°
2026-05-08 17:32 25.54263 53.01924 25828 ft 386 kts 279°
2026-05-08 17:32 25.54855 52.99020 25832 ft 386 kts 279°
2026-05-08 17:32 25.55444 52.96120 25832 ft 386 kts 279°
2026-05-08 17:33 25.56030 52.93252 25832 ft 386 kts 279°
2026-05-08 17:33 25.56841 52.90397 25832 ft 391 kts 289°
2026-05-08 17:33 25.58086 52.87700 25840 ft 394 kts 294°
2026-05-08 17:33 25.59401 52.85030 25845 ft 394 kts 294°
2026-05-08 17:34 25.60691 52.82397 25845 ft 394 kts 294°
2026-05-08 17:34 25.61991 52.79726 25846 ft 394 kts 294°
2026-05-08 17:34 25.63290 52.77048 25847 ft 394 kts 294°
2026-05-08 17:34 25.64586 52.74374 25854 ft 394 kts 294°
2026-05-08 17:35 25.65886 52.71697 25854 ft 394 kts 294°
2026-05-08 17:35 25.67186 52.69020 25854 ft 394 kts 294°
2026-05-08 17:35 25.68470 52.66380 25856 ft 394 kts 294°
2026-05-08 17:35 25.69773 52.63705 25856 ft 394 kts 294°
2026-05-08 17:36 25.71077 52.61028 25854 ft 394 kts 294°
2026-05-08 17:36 25.72380 52.58352 25854 ft 393 kts 294°
2026-05-08 17:36 25.73665 52.55710 25853 ft 393 kts 294°
2026-05-08 17:36 25.74965 52.53030 25853 ft 393 kts 294°
2026-05-08 17:37 25.76262 52.50355 25857 ft 393 kts 293°
2026-05-08 17:37 25.77541 52.47669 25858 ft 393 kts 292°
2026-05-08 17:37 25.78787 52.44995 25860 ft 393 kts 292°
2026-05-08 17:37 25.80033 52.42292 25860 ft 393 kts 292°
2026-05-08 17:38 25.81275 52.39589 25859 ft 393 kts 292°
2026-05-08 17:38 25.82517 52.36886 25860 ft 393 kts 292°
2026-05-08 17:38 25.83760 52.34181 25860 ft 393 kts 292°
2026-05-08 17:38 25.84988 52.31516 25859 ft 393 kts 292°
2026-05-08 17:39 25.86242 52.28813 25858 ft 393 kts 294°
2026-05-08 17:39 25.87759 52.26264 25871 ft 399 kts 304°
2026-05-08 17:39 25.89630 52.23965 25869 ft 402 kts 308°
2026-05-08 17:39 25.91532 52.21687 25867 ft 402 kts 308°
2026-05-08 17:40 25.93434 52.19399 25865 ft 402 kts 307°
2026-05-08 17:40 25.95329 52.17112 25869 ft 402 kts 307°
2026-05-08 17:40 25.97201 52.14847 25869 ft 402 kts 307°
2026-05-08 17:40 25.99093 52.12552 25869 ft 402 kts 307°
2026-05-08 17:41 26.00989 52.10253 25868 ft 402 kts 307°
2026-05-08 17:41 26.02887 52.07956 25872 ft 402 kts 307°
2026-05-08 17:41 26.04786 52.05660 25869 ft 402 kts 307°
2026-05-08 17:41 26.06680 52.03369 25883 ft 403 kts 307°
2026-05-08 17:42 26.08582 52.01069 25881 ft 403 kts 307°
2026-05-08 17:42 26.10477 51.98778 25881 ft 403 kts 307°
2026-05-08 17:42 26.12350 51.96512 25880 ft 403 kts 307°
2026-05-08 17:42 26.14246 51.94216 25879 ft 402 kts 307°
2026-05-08 17:43 26.16143 51.91913 25880 ft 402 kts 307°
2026-05-08 17:43 26.18030 51.89614 25880 ft 402 kts 307°
2026-05-08 17:43 26.19921 51.87311 25878 ft 402 kts 307°
2026-05-08 17:43 26.21812 51.85013 25876 ft 402 kts 307°
2026-05-08 17:44 26.23682 51.82740 25883 ft 402 kts 306°
2026-05-08 17:44 26.25369 51.80292 25886 ft 395 kts 296°
2026-05-08 17:44 26.26654 51.77617 25882 ft 390 kts 290°
2026-05-08 17:44 26.27853 51.74904 25878 ft 390 kts 291°
2026-05-08 17:45 26.29058 51.72184 25879 ft 391 kts 291°
2026-05-08 17:45 26.30249 51.69502 25877 ft 391 kts 291°
2026-05-08 17:45 26.31454 51.66793 25747 ft 388 kts 291°
2026-05-08 17:45 26.32654 51.64105 25266 ft 385 kts 291°
2026-05-08 17:46 26.33846 51.61444 24768 ft 382 kts 291°
2026-05-08 17:46 26.35033 51.58796 24276 ft 380 kts 291°
2026-05-08 17:46 26.36208 51.56167 23795 ft 377 kts 292°
2026-05-08 17:46 26.37372 51.53558 23309 ft 375 kts 291°
2026-05-08 17:47 26.38342 51.50926 22789 ft 369 kts 285°
2026-05-08 17:47 26.39200 51.48226 22271 ft 367 kts 285°
2026-05-08 17:47 26.40051 51.45558 21782 ft 364 kts 285°
2026-05-08 17:47 26.40611 51.43799 21468 ft 362 kts 286°
2026-05-08 17:48 26.41741 51.40263 20834 ft 359 kts 286°
2026-05-08 17:48 26.42581 51.37642 20393 ft 357 kts 286°
2026-05-08 17:48 26.43403 51.35071 19966 ft 355 kts 286°
2026-05-08 17:48 26.44229 51.32483 19532 ft 352 kts 287°
2026-05-08 17:49 26.44929 51.29883 19107 ft 347 kts 278°
2026-05-08 17:49 26.45173 51.27226 18691 ft 342 kts 267°
2026-05-08 17:49 26.44975 51.24623 18017 ft 334 kts 258°
2026-05-08 17:49 26.44356 51.22150 17179 ft 329 kts 247°
2026-05-08 17:50 26.43490 51.19841 16396 ft 325 kts 246°
2026-05-08 17:50 26.42615 51.17507 15614 ft 323 kts 246°
2026-05-08 17:50 26.41757 51.15190 14801 ft 324 kts 246°
2026-05-08 17:50 26.40900 51.12870 14087 ft 321 kts 246°
2026-05-08 17:51 26.40058 51.10600 13358 ft 319 kts 245°
2026-05-08 17:51 26.39202 51.08299 12591 ft 316 kts 246°
2026-05-08 17:51 26.38376 51.06082 11875 ft 312 kts 247°
2026-05-08 17:51 26.37548 51.03853 11173 ft 308 kts 248°
2026-05-08 17:52 26.36726 51.01648 10428 ft 307 kts 248°
2026-05-08 17:52 26.35911 50.99461 9865 ft 299 kts 248°
2026-05-08 17:52 26.34390 50.95386 8909 ft 278 kts 250°
2026-05-08 17:53 26.33650 50.93396 8234 ft 276 kts 250°
2026-05-08 17:53 26.33181 50.91326 7496 ft 274 kts 261°
2026-05-08 17:53 26.32661 50.89277 6796 ft 275 kts 254°
2026-05-08 17:53 26.31996 50.87279 6096 ft 275 kts 248°
2026-05-08 17:54 26.30943 50.85476 5346 ft 283 kts 234°
2026-05-08 17:54 26.29692 50.83806 4973 ft 281 kts 233°
2026-05-08 17:54 26.28445 50.82199 4852 ft 265 kts 233°
2026-05-08 17:54 26.27233 50.80741 4729 ft 248 kts 228°
2026-05-08 17:55 26.25971 50.79514 4595 ft 235 kts 220°
2026-05-08 17:55 26.24681 50.78452 4367 ft 222 kts 228°
2026-05-08 17:55 26.23911 50.77112 4237 ft 195 kts 263°
2026-05-08 17:55 26.23567 50.75720 4056 ft 189 kts 247°
2026-05-08 17:56 26.22667 50.74677 3954 ft 183 kts 225°
2026-05-08 17:56 26.21911 50.73646 3725 ft 162 kts 261°
2026-05-08 17:56 26.21885 50.72480 3446 ft 145 kts 298°
2026-05-08 17:56 26.22364 50.71533 3183 ft 139 kts 310°
2026-05-08 17:57 26.22880 50.70640 2904 ft 138 kts 310°
2026-05-08 17:57 26.23398 50.69743 2629 ft 137 kts 310°
2026-05-08 17:57 26.23915 50.68850 2353 ft 136 kts 310°
2026-05-08 17:57 26.24426 50.67966 2090 ft 135 kts 309°
2026-05-08 17:58 26.24931 50.67093 2018 ft 134 kts 309°
2026-05-08 17:58 26.25437 50.66217 1981 ft 134 kts 309°
2026-05-08 17:58 26.25938 50.65349 2111 ft 135 kts 309°
2026-05-08 17:58 26.26491 50.64399 2359 ft 154 kts 308°
2026-05-08 17:59 26.27076 50.63383 2477 ft 156 kts 308°
2026-05-08 17:59 26.27663 50.62365 2505 ft 156 kts 308°
2026-05-08 17:59 26.28248 50.61351 2517 ft 161 kts 308°
2026-05-08 17:59 26.28869 50.60277 2517 ft 166 kts 308°
2026-05-08 18:00 26.29492 50.59195 2510 ft 166 kts 308°
2026-05-08 18:00 26.31231 50.57887 2502 ft 164 kts
2026-05-08 18:00 26.32230 50.58575 2519 ft 181 kts 47°
2026-05-08 18:01 26.32604 50.59926 2507 ft 196 kts 88°
2026-05-08 18:01 26.32144 50.61395 2523 ft 208 kts 117°
2026-05-08 18:01 26.31317 50.62737 2512 ft 211 kts 122°
2026-05-08 18:01 26.30425 50.64048 2506 ft 212 kts 123°
2026-05-08 18:02 26.29519 50.65360 2523 ft 213 kts 123°
2026-05-08 18:02 26.28913 50.66224 2507 ft 213 kts 123°
2026-05-08 18:02 26.27691 50.67941 2510 ft 212 kts 123°
2026-05-08 18:02 26.26767 50.69214 2508 ft 211 kts 123°
2026-05-08 18:03 26.25847 50.70495 2508 ft 210 kts 123°
2026-05-08 18:03 26.24979 50.71779 2508 ft 209 kts 120°
2026-05-08 18:03 26.24149 50.73108 2508 ft 209 kts 117°
2026-05-08 18:03 26.23343 50.74479 2508 ft 211 kts 115°
2026-05-08 18:04 26.22598 50.75893 2508 ft 211 kts 113°
2026-05-08 18:04 26.21885 50.77304 2507 ft 212 kts 113°
2026-05-08 18:04 26.21165 50.78746 2506 ft 213 kts 113°
2026-05-08 18:04 26.20440 50.80197 2507 ft 214 kts 113°
2026-05-08 18:05 26.19500 50.81487 2511 ft 220 kts 147°
2026-05-08 18:05 26.18097 50.81809 2497 ft 200 kts 198°
2026-05-08 18:05 26.17073 50.81022 2497 ft 172 kts 253°
2026-05-08 18:05 26.17034 50.79859 2503 ft 144 kts 310°
2026-05-08 18:06 26.17777 50.79194 2526 ft 139 kts 331°
2026-05-08 18:06 26.18391 50.78349 2532 ft 147 kts 303°
2026-05-08 18:06 26.18921 50.77393 2441 ft 144 kts 312°
2026-05-08 18:06 26.19484 50.76468 2301 ft 144 kts 311°
2026-05-08 18:07 26.20025 50.75553 2135 ft 141 kts 310°
2026-05-08 18:07 26.20558 50.74644 1967 ft 140 kts 310°
2026-05-08 18:07 26.21085 50.73737 1796 ft 139 kts 310°
2026-05-08 18:07 26.21611 50.72832 1620 ft 138 kts 310°
2026-05-08 18:08 26.22125 50.71944 1459 ft 135 kts 309°
2026-05-08 18:08 26.22625 50.71079 1282 ft 134 kts 309°
2026-05-08 18:08 26.23127 50.70212 1104 ft 133 kts 307°
2026-05-08 18:08 26.23627 50.69349 943 ft 133 kts 307°
2026-05-08 18:09 26.24119 50.68496 776 ft 132 kts 306°
2026-05-08 18:09 26.24625 50.67622 639 ft 133 kts 305°
2026-05-08 18:09 26.25123 50.66757 460 ft 137 kts 305°
2026-05-08 18:09 26.25617 50.65852 312 ft 138 kts 304°
2026-05-08 18:10 26.26159 50.64953 154 ft 139 kts 305°
2026-05-08 18:10 26.26674 50.64067 29 ft 128 kts 305°
2026-05-08 18:10 26.27069 50.63388 14 ft 78 kts 302°
2026-05-08 18:10 26.27270 50.63039 17 ft 29 kts 302°
2026-05-08 18:11 26.27317 50.62955 17 ft 27 kts 303°
2026-05-08 18:11 26.27449 50.62728 16 ft 22 kts 302°
2026-05-08 18:11 26.27387 50.62599 19 ft 8 kts 212°
2026-05-08 18:11 26.27379 50.62593 18 ft 4 kts 212°
2026-05-08 18:12 26.27347 50.62588 18 ft 7 kts 163°
2026-05-08 18:12 26.27329 50.62602 17 ft 0 kts 133°
2026-05-08 18:12 26.27297 50.62655 18 ft 14 kts 122°
2026-05-08 18:13 26.27247 50.62742 19 ft 13 kts 123°
2026-05-08 18:13 26.27205 50.62819 21 ft 11 kts 124°
2026-05-08 18:13 26.27167 50.62881 22 ft 9 kts 122°
2026-05-08 18:13 26.27131 50.62916 22 ft 6 kts 172°
2026-05-08 18:14 26.27103 50.62903 23 ft 5 kts 211°
2026-05-08 18:14 26.27049 50.62883 22 ft 8 kts 169°
2026-05-08 18:14 26.27012 50.62892 23 ft 5 kts 202°
2026-05-08 18:14 26.26984 50.62869 21 ft 5 kts 213°
2026-05-08 18:15 26.26952 50.62847 21 ft 5 kts 213°
2026-05-08 18:15 26.26939 50.62838 23 ft 0 kts 213°